User: anonymous   Login
Location: Unspecified
(0.0000°N, 0.0000°E)
Time: 05:32:06
(UTC+00:00)
Language:

MERIDIAN 7 - Orbit

View from above orbital plane
View from above orbital plane
View from above satellite
View from above satellite

Ground track
Ground track

The orbit data is extracted from the following two-line orbital elements,

1 40296U 14069A   18348.77689390  .00000371  00000-0  00000+0 0  9994
2 40296  62.8614 182.8104 6790311 274.4466 144.0442  2.00589677 30235
Epoch (UTC): 14 December 2018 18:38:43
Eccentricity: 0.6790311
inclination: 62.8614°
perigee height: 2146 km
apogee height: 38213 km
right ascension of ascending node: 182.8104°
argument of perigee: 274.4466°
revolutions per day: 2.00589677
mean anomaly at epoch: 144.0442°
orbit number at epoch: 3023

The dashed part of the orbit path shows where the satellite is in the earth's shadow,  

DLR